TimeCST,TemperatureF,Dew PointF,Humidity,Sea Level PressureIn,VisibilityMPH,Wind Direction,Wind SpeedMPH,Gust SpeedMPH,PrecipitationIn,Events,Conditions,WindDirDegrees,DateUTC
12:15 AM,37.4,30.2,75,30.26,10.0,Calm,Calm,-,N/A,,Clear,0,2013-03-07 06:15:00
12:35 AM,37.4,30.2,75,30.26,10.0,Calm,Calm,-,N/A,,Clear,0,2013-03-07 06:35:00
12:55 AM,37.4,32.0,81,30.26,10.0,Calm,Calm,-,N/A,,Clear,0,2013-03-07 06:55:00
1:15 AM,37.4,30.2,75,30.25,10.0,East,3.5,-,N/A,,Clear,80,2013-03-07 07:15:00
1:35 AM,39.2,30.2,70,30.25,10.0,East,3.5,-,N/A,,Scattered Clouds,100,2013-03-07 07:35:00
1:55 AM,39.2,30.2,70,30.26,10.0,Calm,Calm,-,N/A,,Clear,0,2013-03-07 07:55:00
2:15 AM,37.4,30.2,75,30.26,10.0,Calm,Calm,-,N/A,,Clear,0,2013-03-07 08:15:00
2:35 AM,37.4,30.2,75,30.25,10.0,Calm,Calm,-,N/A,,Clear,0,2013-03-07 08:35:00
2:55 AM,37.4,28.4,70,30.25,10.0,East,3.5,-,N/A,,Clear,90,2013-03-07 08:55:00
3:15 AM,39.2,30.2,70,30.25,10.0,Calm,Calm,-,N/A,,Clear,0,2013-03-07 09:15:00
3:35 AM,37.4,30.2,75,30.25,10.0,Calm,Calm,-,N/A,,Clear,0,2013-03-07 09:35:00
3:55 AM,37.4,30.2,75,30.25,10.0,Calm,Calm,-,N/A,,Clear,0,2013-03-07 09:55:00
4:15 AM,37.4,30.2,75,30.25,10.0,Calm,Calm,-,N/A,,Clear,0,2013-03-07 10:15:00
4:35 AM,35.6,30.2,81,30.25,10.0,Calm,Calm,-,N/A,,Clear,0,2013-03-07 10:35:00
4:55 AM,35.6,30.2,81,30.25,10.0,Calm,Calm,-,N/A,,Clear,0,2013-03-07 10:55:00
5:15 AM,35.6,30.2,81,30.24,10.0,Calm,Calm,-,N/A,,Clear,0,2013-03-07 11:15:00
5:35 AM,35.6,30.2,81,30.24,10.0,Calm,Calm,-,N/A,,Clear,0,2013-03-07 11:35:00
5:55 AM,35.6,28.4,75,30.23,10.0,East,3.5,-,N/A,,Clear,100,2013-03-07 11:55:00
6:15 AM,35.6,28.4,75,30.23,10.0,Calm,Calm,-,N/A,,Clear,0,2013-03-07 12:15:00
6:35 AM,35.6,28.4,75,30.24,10.0,East,3.5,-,N/A,,Clear,80,2013-03-07 12:35:00
6:55 AM,35.6,28.4,75,30.24,10.0,East,3.5,-,N/A,,Clear,90,2013-03-07 12:55:00
7:15 AM,37.4,28.4,70,30.24,10.0,ESE,4.6,-,N/A,,Clear,110,2013-03-07 13:15:00
7:35 AM,39.2,30.2,70,30.24,10.0,ESE,3.5,-,N/A,,Clear,120,2013-03-07 13:35:00
7:55 AM,42.8,30.2,61,30.25,10.0,SE,3.5,-,N/A,,Clear,130,2013-03-07 13:55:00
8:15 AM,44.6,30.2,57,30.25,10.0,SE,5.8,-,N/A,,Clear,140,2013-03-07 14:15:00
8:35 AM,46.4,28.4,50,30.26,10.0,SSE,6.9,-,N/A,,Clear,150,2013-03-07 14:35:00
8:55 AM,50.0,28.4,43,30.26,10.0,SSE,8.1,-,N/A,,Clear,150,2013-03-07 14:55:00
9:15 AM,51.8,28.4,41,30.26,10.0,SSE,8.1,-,N/A,,Clear,150,2013-03-07 15:15:00
9:35 AM,53.6,28.4,38,30.26,10.0,SSE,9.2,-,N/A,,Clear,150,2013-03-07 15:35:00
9:55 AM,53.6,28.4,38,30.25,10.0,SSE,12.7,-,N/A,,Clear,160,2013-03-07 15:55:00
10:15 AM,55.4,26.6,33,30.25,10.0,South,12.7,-,N/A,,Clear,170,2013-03-07 16:15:00
10:35 AM,55.4,26.6,33,30.25,10.0,South,11.5,-,N/A,,Clear,170,2013-03-07 16:35:00
10:55 AM,57.2,26.6,31,30.25,10.0,SSE,11.5,16.1,N/A,,Clear,160,2013-03-07 16:55:00
11:15 AM,59.0,28.4,31,30.25,10.0,South,11.5,16.1,N/A,,Clear,180,2013-03-07 17:15:00
11:35 AM,60.8,28.4,29,30.24,10.0,South,11.5,-,N/A,,Clear,170,2013-03-07 17:35:00
11:55 AM,60.8,28.4,29,30.23,10.0,SSE,9.2,16.1,N/A,,Clear,160,2013-03-07 17:55:00
12:15 PM,62.6,28.4,27,30.23,10.0,SSE,8.1,16.1,N/A,,Clear,160,2013-03-07 18:15:00
12:35 PM,62.6,26.6,26,30.22,10.0,South,11.5,18.4,N/A,,Clear,180,2013-03-07 18:35:00
12:55 PM,62.6,28.4,27,30.21,10.0,SSE,10.4,-,N/A,,Clear,150,2013-03-07 18:55:00
1:15 PM,62.6,28.4,27,30.20,10.0,South,11.5,16.1,N/A,,Clear,170,2013-03-07 19:15:00
1:35 PM,62.6,28.4,27,30.19,10.0,South,8.1,19.6,N/A,,Clear,190,2013-03-07 19:35:00
1:55 PM,64.4,28.4,26,30.17,10.0,SSE,9.2,-,N/A,,Clear,160,2013-03-07 19:55:00
2:15 PM,64.4,28.4,26,30.17,10.0,SE,11.5,17.3,N/A,,Clear,140,2013-03-07 20:15:00
2:35 PM,64.4,28.4,26,30.16,10.0,SSE,13.8,19.6,N/A,,Clear,160,2013-03-07 20:35:00
2:55 PM,64.4,28.4,26,30.16,10.0,ESE,12.7,21.9,N/A,,Clear,120,2013-03-07 20:55:00
3:15 PM,64.4,28.4,26,30.15,10.0,SSE,11.5,-,N/A,,Clear,150,2013-03-07 21:15:00
3:35 PM,64.4,28.4,26,30.14,10.0,SE,13.8,19.6,N/A,,Clear,140,2013-03-07 21:35:00
3:55 PM,64.4,30.2,28,30.14,10.0,SSE,12.7,-,N/A,,Clear,150,2013-03-07 21:55:00
4:15 PM,64.4,28.4,26,30.14,10.0,SSE,12.7,19.6,N/A,,Clear,160,2013-03-07 22:15:00
4:35 PM,64.4,28.4,26,30.13,10.0,SSE,12.7,19.6,N/A,,Clear,150,2013-03-07 22:35:00
4:55 PM,64.4,28.4,26,30.13,10.0,SSE,11.5,17.3,N/A,,Clear,150,2013-03-07 22:55:00
5:15 PM,62.6,30.2,30,30.13,10.0,SSE,11.5,17.3,N/A,,Clear,150,2013-03-07 23:15:00
5:35 PM,62.6,28.4,27,30.13,10.0,SSE,11.5,17.3,N/A,,Clear,160,2013-03-07 23:35:00
5:55 PM,60.8,30.2,31,30.13,10.0,SSE,10.4,17.3,N/A,,Clear,150,2013-03-07 23:55:00
7:35 PM,51.8,30.2,44,30.15,10.0,SE,4.6,-,N/A,,Clear,130,2013-03-08 01:35:00
7:55 PM,51.8,30.2,44,30.15,10.0,SE,5.8,-,N/A,,Clear,130,2013-03-08 01:55:00
8:15 PM,50.0,32.0,50,30.15,10.0,Calm,Calm,-,N/A,,Clear,0,2013-03-08 02:15:00
8:35 PM,50.0,32.0,50,30.15,10.0,Calm,Calm,-,N/A,,Clear,0,2013-03-08 02:35:00
8:55 PM,48.2,32.0,54,30.16,10.0,Calm,Calm,-,N/A,,Clear,0,2013-03-08 02:55:00
9:15 PM,50.0,32.0,50,30.16,10.0,SE,3.5,-,N/A,,Clear,130,2013-03-08 03:15:00
9:35 PM,48.2,32.0,54,30.17,10.0,Calm,Calm,-,N/A,,Clear,0,2013-03-08 03:35:00
9:55 PM,46.4,32.0,57,30.17,10.0,SE,4.6,-,N/A,,Clear,140,2013-03-08 03:55:00
10:15 PM,48.2,32.0,54,30.19,10.0,SE,3.5,-,N/A,,Clear,130,2013-03-08 04:15:00
10:35 PM,46.4,32.0,57,30.19,10.0,ESE,3.5,-,N/A,,Clear,110,2013-03-08 04:35:00
10:55 PM,44.6,32.0,61,30.19,10.0,East,3.5,-,N/A,,Clear,100,2013-03-08 04:55:00
11:15 PM,44.6,32.0,61,30.18,10.0,ESE,5.8,-,N/A,,Clear,110,2013-03-08 05:15:00
11:35 PM,44.6,32.0,61,30.18,10.0,ESE,5.8,-,N/A,,Clear,110,2013-03-08 05:35:00
11:55 PM,44.6,32.0,61,30.18,10.0,ESE,3.5,-,N/A,,Clear,110,2013-03-08 05:55:00